Los Alamos, NM

6:22 AM MDT on August 30, 2016 (GMT -0600)
Los Alamos

Weather History for KLAM - August, 2013

Change the Weather History Date:

Saturday, August 3, 2013

  Actual Average Record
Temperature  
Mean Temperature 69 °F -  
Max Temperature 81 °F 77 °F 90 °F (1977)
Min Temperature 57 °F 54 °F 47 °F (1990)
Cooling Degree Days 4    
Growing Degree Days 19 (Base 50)    
Moisture  
Dew Point 52 °F    
Average Humidity 56    
Maximum Humidity 100    
Minimum Humidity 28    
Precipitation  
Precipitation 0.00 in - - ()
Sea Level Pressure  
Sea Level Pressure 30.32 in    
Wind  
Wind Speed 8 mph (NNW)    
Max Wind Speed 21 mph    
Max Gust Speed 29 mph    
Visibility 10 miles    
Events      
Averages and records for this station are not official NWS values.
T = Trace of Precipitation, MM = Missing Value Source: NWS Daily Summary

Daily Weather History Graph

Daily Weather History Graph

Search for Another Location

Airport or City:

Trip Planner

Search our weather history database for the weather conditions in past years. The results will help you decide how hot, cold, wet, or windy it might be!

Date:

Astronomy

Aug. 03, 2013 Rise Set
Actual Time 6:14 AM MDT 8:07 PM MDT
Civil Twilight 5:46 AM MDT 8:35 PM MDT
Nautical Twilight 5:12 AM MDT 9:09 PM MDT
Astronomical Twilight 4:36 AM MDT 9:45 PM MDT
Moon 3:27 AM MDT (8/3) 5:50 PM MDT (8/3)
Length of Visible Light 14h 48m
Length of Day
13h 52m
Waning Crescent, 9% of the Moon is Illuminated
Aug 3
Waning Crescent
Aug 6
New
Aug 14
First Quarter
Aug 20
Full
Aug 28
Last Quarter

Hourly Weather History & Observations

Time (MDT) Temp. Dew Point Humidity Pressure Visibility Wind Dir Wind Speed Gust Speed Precip Events Conditions
12:15 AM 61.2 °F 57.2 °F 87% 30.35 in 10.0 mi NNW 12.7 mph 20.7 mph N/A   Light Drizzle
12:35 AM 62.6 °F 54.1 °F 74% 30.33 in 10.0 mi NNW 20.7 mph 25.3 mph N/A   Overcast
12:55 AM 61.9 °F 54.9 °F 78% 30.33 in 10.0 mi NE 11.5 mph 18.4 mph N/A   Scattered Clouds
1:15 AM 60.1 °F 57.6 °F 91% 30.33 in 10.0 mi ENE 9.2 mph 16.1 mph N/A   Clear
1:35 AM 58.6 °F 58.6 °F 100% 30.32 in 7.0 mi ENE 8.1 mph - N/A   Scattered Clouds
1:55 AM 58.3 °F 58.3 °F 100% 30.31 in 2.5 mi North 4.6 mph - N/A   Mostly Cloudy
2:15 AM 58.1 °F 58.1 °F 100% 30.31 in 0.8 mi Calm Calm - N/A   Overcast
2:35 AM 57.7 °F 57.7 °F 100% 30.30 in 1.2 mi NNW 3.5 mph - N/A   Mostly Cloudy
2:55 AM 58.5 °F 57.0 °F 95% 30.30 in 10.0 mi North 5.8 mph - N/A   Clear
3:15 AM 59.7 °F 54.9 °F 84% 30.30 in 10.0 mi North 6.9 mph - N/A   Clear
3:35 AM 59.2 °F 54.9 °F 86% 30.30 in 10.0 mi NNW 4.6 mph - N/A   Clear
3:55 AM 59.0 °F 54.5 °F 85% 30.30 in 10.0 mi NNW 8.1 mph - N/A   Clear
4:15 AM 59.4 °F 53.6 °F 81% 30.30 in 10.0 mi NNW 8.1 mph - N/A   Clear
4:35 AM 60.1 °F 52.9 °F 77% 30.31 in 10.0 mi NNW 6.9 mph - N/A   Clear
4:55 AM 60.8 °F 52.7 °F 75% 30.31 in 10.0 mi North 8.1 mph - N/A   Clear
5:15 AM 60.6 °F 52.2 °F 74% 30.31 in 10.0 mi North 6.9 mph - N/A   Clear
5:35 AM 60.8 °F 51.8 °F 72% 30.31 in 10.0 mi NNW 5.8 mph - N/A   Clear
5:55 AM 60.8 °F 51.4 °F 71% 30.32 in 10.0 mi Calm Calm - N/A   Clear
6:15 AM 59.9 °F 51.6 °F 74% 30.32 in 10.0 mi Calm Calm - N/A   Clear
6:35 AM 59.4 °F 52.3 °F 78% 30.33 in 10.0 mi Calm Calm - N/A   Clear
6:55 AM 60.4 °F 52.2 °F 74% 30.33 in 10.0 mi Calm Calm - N/A   Clear
7:15 AM 61.0 °F 52.7 °F 74% 30.33 in 10.0 mi Calm Calm - N/A   Clear
7:35 AM 62.2 °F 53.1 °F 72% 30.34 in 10.0 mi North 3.5 mph - N/A   Clear
7:55 AM 63.0 °F 53.2 °F 71% 30.34 in 10.0 mi Calm Calm - N/A   Clear
8:15 AM 63.5 °F 53.6 °F 70% 30.35 in 10.0 mi Calm Calm - N/A   Clear
8:35 AM 64.6 °F 53.6 °F 68% 30.35 in 10.0 mi NE 4.6 mph - N/A   Clear
8:55 AM 65.1 °F 55.2 °F 70% 30.35 in 10.0 mi NNE 4.6 mph - N/A   Clear
9:15 AM 65.3 °F 55.4 °F 70% 30.36 in 10.0 mi Calm Calm - N/A   Clear
9:35 AM 66.0 °F 56.3 °F 71% 30.36 in 10.0 mi NE 3.5 mph - N/A   Clear
9:55 AM 67.1 °F 56.8 °F 70% 30.36 in 10.0 mi Calm Calm - N/A   Clear
10:15 AM 68.9 °F 57.0 °F 66% 30.36 in 10.0 mi NE 4.6 mph - N/A   Clear
10:35 AM 69.8 °F 56.7 °F 63% 30.36 in 10.0 mi NNE 5.8 mph - N/A   Clear
10:55 AM 71.6 °F 56.8 °F 60% 30.36 in 10.0 mi ENE 5.8 mph - N/A   Clear
11:15 AM 73.4 °F 57.6 °F 58% 30.36 in 10.0 mi East 5.8 mph - N/A   Clear
11:35 AM 72.7 °F 55.6 °F 55% 30.36 in 10.0 mi East 5.8 mph - N/A   Clear
11:55 AM 73.8 °F 53.4 °F 49% 30.35 in 10.0 mi Calm Calm - N/A   Clear
12:15 PM 74.8 °F 52.0 °F 45% 30.35 in 10.0 mi Calm Calm - N/A   Clear
12:35 PM 76.8 °F 50.7 °F 40% 30.35 in 10.0 mi SSE 8.1 mph 16.1 mph N/A   Clear
12:55 PM 76.3 °F 50.2 °F 40% 30.34 in 10.0 mi SE 4.6 mph - N/A   Clear
1:15 PM 78.1 °F 49.5 °F 37% 30.33 in 10.0 mi SSE 8.1 mph - N/A   Clear
1:35 PM 78.3 °F 48.7 °F 35% 30.33 in 10.0 mi ESE 9.2 mph - N/A   Clear
1:55 PM 78.6 °F 47.8 °F 34% 30.33 in 10.0 mi East 5.8 mph - N/A   Clear
2:15 PM 79.0 °F 48.2 °F 34% 30.32 in 10.0 mi SE 5.8 mph - N/A   Clear
2:35 PM 79.9 °F 48.9 °F 34% 30.31 in 10.0 mi SE 12.7 mph 18.4 mph N/A   Scattered Clouds
2:55 PM 78.3 °F 49.6 °F 37% 30.32 in 10.0 mi SSE 10.4 mph - N/A   Scattered Clouds
3:15 PM 74.3 °F 51.6 °F 45% 30.32 in 10.0 mi NW 11.5 mph - N/A   Scattered Clouds
3:35 PM 78.1 °F 51.8 °F 40% 30.31 in 10.0 mi NW 5.8 mph - N/A   Scattered Clouds
3:55 PM 79.3 °F 51.6 °F 38% 30.30 in 10.0 mi NW 4.6 mph - N/A   Clear
4:15 PM 80.8 °F 50.5 °F 35% 30.29 in 10.0 mi South 10.4 mph 16.1 mph N/A   Scattered Clouds
4:35 PM 81.0 °F 49.1 °F 33% 30.29 in 10.0 mi South 12.7 mph 17.3 mph N/A   Mostly Cloudy
4:55 PM 80.6 °F 48.4 °F 32% 30.29 in 10.0 mi South 9.2 mph 18.4 mph N/A   Mostly Cloudy
5:15 PM 81.7 °F 47.3 °F 30% 30.29 in 10.0 mi South 9.2 mph 18.4 mph N/A   Scattered Clouds
5:35 PM 81.9 °F 46.4 °F 29% 30.28 in 10.0 mi South 6.9 mph 11.5 mph N/A   Clear
5:55 PM 81.5 °F 45.3 °F 28% 30.28 in 10.0 mi SSE 8.1 mph - N/A   Clear
6:15 PM 81.7 °F 45.5 °F 28% 30.27 in 10.0 mi SSE 9.2 mph - N/A   Clear
6:35 PM 81.3 °F 45.7 °F 28% 30.27 in 10.0 mi South 10.4 mph - N/A   Clear
6:55 PM 81.1 °F 45.9 °F 29% 30.27 in 10.0 mi South 8.1 mph - N/A   Clear
7:35 PM 80.2 °F 46.2 °F 30% 30.28 in 10.0 mi SW 9.2 mph - N/A   Clear
7:55 PM 79.3 °F 46.8 °F 32% 30.29 in 10.0 mi SW 5.8 mph - N/A   Clear
8:15 PM 78.3 °F 46.9 °F 33% 30.30 in 10.0 mi SW 6.9 mph - N/A   Clear
8:35 PM 77.2 °F 47.3 °F 35% 30.31 in 10.0 mi SW 8.1 mph - N/A   Clear
8:55 PM 77.0 °F 47.5 °F 35% 30.31 in 10.0 mi WSW 5.8 mph - N/A   Clear
9:15 PM 76.8 °F 47.7 °F 36% 30.32 in 10.0 mi WSW 6.9 mph - N/A   Scattered Clouds
9:35 PM 76.8 °F 47.5 °F 35% 30.32 in 10.0 mi WSW 8.1 mph - N/A   Mostly Cloudy
9:55 PM 76.3 °F 47.5 °F 36% 30.33 in 10.0 mi WSW 6.9 mph - N/A   Mostly Cloudy
10:15 PM 75.6 °F 47.5 °F 37% 30.33 in 10.0 mi West 6.9 mph - N/A   Scattered Clouds
10:35 PM 75.4 °F 47.7 °F 37% 30.34 in 10.0 mi West 6.9 mph - N/A   Scattered Clouds
10:55 PM 74.3 °F 47.7 °F 39% 30.34 in 10.0 mi West 8.1 mph - N/A   Scattered Clouds
11:15 PM 74.8 °F 47.3 °F 38% 30.34 in 10.0 mi West 4.6 mph - N/A   Mostly Cloudy
11:35 PM 74.3 °F 48.0 °F 39% 30.35 in 10.0 mi North 17.3 mph 23.0 mph N/A   Overcast
11:55 PM 70.3 °F 51.8 °F 52% 30.35 in 10.0 mi North 19.6 mph 28.8 mph N/A   Mostly Cloudy